{"data":{"norad_id":48303,"intl_designator":"2021-036AD","name":"STARLINK-2530","alt_names":[],"object_type":"PAYLOAD","status":"ACTIVE","operator":null,"country":"US","launch_date":"2021-04-29","launch_site_code":"AFETR","launch_vehicle":null,"mission":null,"orbit_class":"UNKNOWN","rcs_meters":null,"size_class":null,"mass_kg":null,"dimensions":null,"purposes":["comms"],"wikipedia_slug":null,"has_3d_model":false,"image_url":null,"decayed_at":null,"tle_current":{"epoch":"2026-05-25T02:24:16.339104Z","epoch_age_seconds":77095,"freshness":"FRESH","line1":"1 48303U 21036AD  26145.10018911 -.00000161  00000+0  65856-5 0  9992","line2":"2 48303  53.1598  93.0639 0001309  86.0627 274.0524 15.31698196279925","mean_motion":15.31698196,"eccentricity":0.0001309,"inclination_deg":53.1598,"raan_deg":93.0639,"arg_perigee_deg":86.0627,"mean_anomaly_deg":274.0524,"bstar":6.5856e-6,"rev_number":27992,"period_min":94.013298687727,"perigee_km":469.84885415845,"apogee_km":471.64189156366,"semimajor_km":6848.8823728611,"source":"CELESTRAK","updated_at":"2026-05-25T13:38:16.676747Z"}}}